Location: Ebersheim
(48.3033°N, 7.4991°E)
Time: 04:13:43
(UTC+00:00)

SKYMED 2 - Pass Details

Date: 27 February 2020
Orbit: 621 x 623 km, 97.9° (Epoch: 29 March)

Event Time Altitude Azimuth Distance (km) Brightness Sun altitude
Rises 17:55:26 0° 11° (N) 2,916 6.9 -8.3°
Reaches altitude 10° 17:57:38 10° 10° (N) 2,004 6.1 -8.7°
Maximum altitude 18:01:59 72° 287° (WNW) 660 3.9 -9.4°
Drops below altitude 10° 18:06:17 10° 203° (SSW) 1,987 6.5 -10.1°
Sets 18:08:28 0° 201° (SSW) 2,889 7.3 -10.5°
